TimeEST,TemperatureF,Dew PointF,Humidity,Sea Level PressureIn,VisibilityMPH,Wind Direction,Wind SpeedMPH,Gust SpeedMPH,PrecipitationIn,Events,Conditions,WindDirDegrees,DateUTC
12:07 AM,66.9,64.9,93,30.01,10.0,Calm,Calm,-,N/A,,Mostly Cloudy,0,2014-01-06 05:07:00
12:20 AM,66.9,64.9,93,30.00,10.0,Calm,Calm,-,N/A,,Scattered Clouds,0,2014-01-06 05:20:00
12:53 AM,66.9,64.9,93,29.99,10.0,SSW,3.5,-,N/A,,Scattered Clouds,210,2014-01-06 05:53:00
1:12 AM,66.9,64.9,93,29.99,10.0,SSW,3.5,-,N/A,,Mostly Cloudy,200,2014-01-06 06:12:00
1:38 AM,66.9,66.0,97,29.99,10.0,SSW,3.5,-,N/A,,Scattered Clouds,200,2014-01-06 06:38:00
1:53 AM,66.0,64.9,96,29.99,9.0,Calm,Calm,-,N/A,,Partly Cloudy,0,2014-01-06 06:53:00
2:07 AM,66.9,66.0,97,29.99,10.0,Calm,Calm,-,N/A,,Mostly Cloudy,0,2014-01-06 07:07:00
2:40 AM,66.0,64.9,96,29.99,10.0,SW,3.5,-,N/A,,Partly Cloudy,220,2014-01-06 07:40:00
2:53 AM,66.0,64.9,96,29.99,10.0,Calm,Calm,-,N/A,,Partly Cloudy,0,2014-01-06 07:53:00
3:53 AM,66.9,66.0,97,29.99,10.0,Calm,Calm,-,N/A,,Overcast,0,2014-01-06 08:53:00
4:41 AM,64.9,64.0,97,30.00,9.0,SSE,5.8,-,N/A,,Mostly Cloudy,160,2014-01-06 09:41:00
4:53 AM,66.0,64.9,96,29.99,9.0,Calm,Calm,-,N/A,,Partly Cloudy,0,2014-01-06 09:53:00
5:40 AM,66.0,64.9,96,30.00,6.0,Calm,Calm,-,N/A,,Mostly Cloudy,0,2014-01-06 10:40:00
5:53 AM,66.0,64.9,96,29.99,9.0,Calm,Calm,-,N/A,,Overcast,0,2014-01-06 10:53:00
6:19 AM,66.9,66.0,97,30.00,1.5,WSW,5.8,-,N/A,,Overcast,240,2014-01-06 11:19:00
6:28 AM,66.9,66.0,97,30.00,0.5,WSW,3.5,-,N/A,Fog,Fog,250,2014-01-06 11:28:00
6:35 AM,66.9,66.9,100,30.00,0.2,WSW,3.5,-,N/A,Fog,Fog,250,2014-01-06 11:35:00
6:53 AM,68.0,68.0,100,30.00,0.2,SW,3.5,-,N/A,Fog,Fog,230,2014-01-06 11:53:00
7:53 AM,68.0,68.0,100,30.02,0.2,WSW,4.6,-,N/A,Fog,Fog,240,2014-01-06 12:53:00
8:42 AM,69.1,68.0,96,30.05,0.8,SSW,4.6,-,N/A,,Mist,210,2014-01-06 13:42:00
8:53 AM,69.1,68.0,96,30.05,0.5,SSW,4.6,-,N/A,Fog,Fog,210,2014-01-06 13:53:00
9:13 AM,69.1,68.0,96,30.06,1.2,SW,4.6,-,N/A,,Overcast,230,2014-01-06 14:13:00
9:19 AM,69.1,68.0,96,30.06,3.0,WSW,4.6,-,N/A,,Overcast,240,2014-01-06 14:19:00
9:53 AM,70.0,69.1,97,30.06,10.0,West,6.9,-,N/A,,Overcast,280,2014-01-06 14:53:00
10:22 AM,72.0,68.0,87,30.08,10.0,West,6.9,-,N/A,,Overcast,270,2014-01-06 15:22:00
10:53 AM,73.9,68.0,82,30.06,10.0,Variable,6.9,-,N/A,,Mostly Cloudy,0,2014-01-06 15:53:00
11:22 AM,75.0,66.9,76,30.06,10.0,West,8.1,-,N/A,,Scattered Clouds,260,2014-01-06 16:22:00
11:53 AM,77.0,66.9,71,30.05,10.0,West,5.8,-,N/A,,Scattered Clouds,280,2014-01-06 16:53:00
12:53 PM,79.0,63.0,58,30.02,10.0,West,10.4,-,N/A,,Clear,260,2014-01-06 17:53:00
1:53 PM,78.1,60.1,54,30.00,10.0,WNW,12.7,20.7,N/A,,Mostly Cloudy,300,2014-01-06 18:53:00
2:53 PM,72.0,62.1,71,30.02,10.0,NW,12.7,21.9,N/A,,Mostly Cloudy,320,2014-01-06 19:53:00
3:53 PM,66.9,59.0,76,30.05,10.0,NW,12.7,21.9,N/A,,Partly Cloudy,320,2014-01-06 20:53:00
4:07 PM,66.0,57.9,75,30.06,10.0,NNW,15.0,21.9,N/A,,Mostly Cloudy,330,2014-01-06 21:07:00
4:44 PM,64.0,55.9,75,30.08,10.0,NNW,8.1,-,N/A,,Mostly Cloudy,340,2014-01-06 21:44:00
4:53 PM,64.0,55.0,73,30.09,10.0,NNW,10.4,-,N/A,,Mostly Cloudy,330,2014-01-06 21:53:00
5:53 PM,61.0,48.9,64,30.12,10.0,NNW,15.0,23.0,N/A,,Overcast,340,2014-01-06 22:53:00
6:53 PM,57.9,37.9,47,30.14,10.0,North,12.7,23.0,N/A,,Overcast,350,2014-01-06 23:53:00
7:53 PM,54.0,32.0,43,30.19,10.0,NNW,15.0,29.9,N/A,,Overcast,330,2014-01-07 00:53:00
8:53 PM,53.1,30.9,43,30.23,10.0,North,12.7,29.9,0.00,,Overcast,350,2014-01-07 01:53:00
9:53 PM,52.0,28.0,40,30.25,10.0,North,13.8,21.9,N/A,,Overcast,360,2014-01-07 02:53:00
10:53 PM,50.0,27.0,41,30.26,10.0,North,16.1,26.5,N/A,,Overcast,350,2014-01-07 03:53:00
11:53 PM,50.0,26.1,39,30.27,10.0,North,16.1,23.0,N/A,,Overcast,360,2014-01-07 04:53:00